sat.trackr.live / text

‹ back to catalog

STARLINK-37068

NORAD 68085 · 2026-042S

PAYLOAD ACTIVE UNKNOWN

§ Identity

Operator
Country
US
Launch date
2026-03-04
Launch site
AFETR
Launch vehicle
Mass (kg)
RCS (m²)

Purposes: comms

External: N2YO · Heavens-Above · Gunter

§ Orbital elements

Epoch: 2026-05-24T19:24:41.294592Z

Period
93.85 min
Inclination
53.1587°
Eccentricity
0.0001362
Mean motion
15.34400406 rev/d
Perigee alt
461.8 km
Apogee alt
463.6 km
Semi-major
6,840.8 km
B*
3.4291e-4
RAAN
182.6956°
Arg perigee
74.3332°
Mean anomaly
285.7821°
Rev number
1,399

§ Raw data

STARLINK-370681 68085U 26042S   26144.80881128  .00011227  00000+0  34291-3 0  99982 68085  53.1587 182.6956 0001362  74.3332 285.7821 15.34400406 13991

JSON: /api/v1/satellites/68085 · /tle

For live sub-satellite position, see the globe view (requires WebGL).

§ Visibility from observer

Set your observer location to see the next 7 days of passes ≥ 10°. The values pass through the URL so the page stays shareable.

No JS? Fill the form by hand. The geolocation button needs JavaScript.